Location: Kellogg
(38.0159°N, 90.0546°W)
Time: 21:24:18
(UTC+00:00)

Transit 4A - Pass Details

Date: 14 September 2024
Orbit: 864 x 978 km, 66.8° (Epoch: 12 October)

Event Time Altitude Azimuth Distance (km) Brightness Sun altitude
Rises 17:01:58 0° 340° (NNW) 3,598 10.6 52.9°
Reaches altitude 10° 17:04:48 10° 350° (N) 2,669 10.1 53.1°
Maximum altitude 17:10:18 32° 52° (NE) 1,600 9.4 53.5°
Drops below altitude 10° 17:15:52 10° 114° (ESE) 2,710 10.8 53.8°
Sets 17:18:45 0° 124° (SE) 3,661 11.4 54.0°
